This is the latest recevied weather packets stored in our database for station/object K0QED. If no packets are shown the sender has not sent any weather packets the latest 10 day(s).
| Time | Temp. | Humidity | Pressure | Rain* | Wind** | Luminosity | Snow |
|---|---|---|---|---|---|---|---|
| 1777469366 | 1.11° C | 98% | 1022.9 hPa | 0 mm | - | 23 W/m² | - |
| 1777469061 | 1.11° C | 98% | 1023 hPa | 0 mm | - | 20 W/m² | - |
| 1777468756 | 1.11° C | 98% | 1022.6 hPa | 0 mm | - | 16 W/m² | - |
| 1777468452 | 1.11° C | 98% | 1022.7 hPa | 0 mm | - | 18 W/m² | - |
| 1777468149 | 1.11° C | 98% | 1022.9 hPa | 0 mm | - | 21 W/m² | - |
| 1777467845 | 1.11° C | 98% | 1022.9 hPa | 0 mm | - | 10 W/m² | - |
| 1777467541 | 1.11° C | 98% | 1022.6 hPa | 0 mm | - | 7 W/m² | - |
| 1777467236 | 1.11° C | 98% | 1022.9 hPa | 0 mm | - | 6 W/m² | - |
| 1777466933 | 1.11° C | 98% | 1022.5 hPa | 0 mm | - | 10 W/m² | - |
| 1777466630 | 1.11° C | 98% | 1022.5 hPa | 0 mm | - | 6 W/m² | - |
| 1777466327 | 1.11° C | 98% | 1022.2 hPa | 0 mm | - | 6 W/m² | - |
| 1777466023 | 1.11° C | 98% | 1022.5 hPa | 0 mm | - | 7 W/m² | - |
| 1777465719 | 1.11° C | 98% | 1022.5 hPa | 0 mm | - | 4 W/m² | - |
| 1777465416 | 1.11° C | 98% | 1022.5 hPa | 0 mm | - | 4 W/m² | - |
| 1777465114 | 1.11° C | 98% | 1022.5 hPa | 0 mm | - | 3 W/m² | - |
| 1777464810 | 1.11° C | 97% | 1022.4 hPa | 0 mm | - | 2 W/m² | - |
| 1777464505 | 1.11° C | 97% | 1022.4 hPa | 0 mm | - | 0 W/m² | - |
| 1777464202 | 1.11° C | 97% | 1022.4 hPa | 0 mm | - | 0 W/m² | - |
| 1777463902 | 1.11° C | 97% | 1022.4 hPa | 0 mm | - | 0 W/m² | - |
| 1777463598 | 1.11° C | 97% | 1022.4 hPa | 0 mm | - | 0 W/m² | - |
| 1777463293 | 1.11° C | 97% | 1022.5 hPa | 0 mm | - | 0 W/m² | - |
| 1777462989 | 1.11° C | 97% | 1022.4 hPa | 0 mm | - | 0 W/m² | - |
| 1777462685 | 1.11° C | 97% | 1022.6 hPa | 0 mm | - | 0 W/m² | - |
| 1777462380 | 1.11° C | 97% | 1022.6 hPa | 0 mm | - | 0 W/m² | - |
| 1777462076 | 1.11° C | 97% | 1022.4 hPa | 0 mm | - | 0 W/m² | - |
* Rain latest hour (hover to see other rain measurements)
** Current wind speed in m/s (hover to see current wind gust speed)